sat.trackr.live / text

‹ back to catalog

ONEWEB-0592

NORAD 54658 · 2022-166S

PAYLOAD ACTIVE UNKNOWN

§ Identity

Operator
Country
UK
Launch date
2022-12-08
Launch site
AFETR
Launch vehicle
Mass (kg)
RCS (m²)

Purposes: comms

External: N2YO · Heavens-Above · Gunter

§ Orbital elements

Epoch: 2026-05-25T05:24:42.535584Z

Period
108.94 min
Inclination
87.9260°
Eccentricity
0.0001982
Mean motion
13.21825069 rev/d
Perigee alt
1,176.3 km
Apogee alt
1,179.3 km
Semi-major
7,555.9 km
B*
1.8819e-4
RAAN
248.5309°
Arg perigee
100.3842°
Mean anomaly
259.7515°
Rev number
16,840

§ Raw data

ONEWEB-05921 54658U 22166S   26145.22549231  .00000091  00000+0  18819-3 0  99902 54658  87.9260 248.5309 0001982 100.3842 259.7515 13.21825069168401

JSON: /api/v1/satellites/54658 · /tle

For live sub-satellite position, see the globe view (requires WebGL).

§ Visibility from observer

Set your observer location to see the next 7 days of passes ≥ 10°. The values pass through the URL so the page stays shareable.

No JS? Fill the form by hand. The geolocation button needs JavaScript.